OPS 0856 DEB, 23820

Orbit data source: Space-Track

OPS 0856 DEB, 23820 is space debris in LEO originally from a launch on Fri, 19 Aug 1966 UTC launched from the Air Force Western Test Range (AFWTR). Debris objects in space refer to the collection of defunct objects orbiting the Earth. Examples of debris include non-operational satellites, rocket bodies, and fragments generated from explosions, collisions, or faulty payload assembly.

Loading next visibility...
OPS 0856 DEB details
Identifier
23820, 1966-077D
Orbit
LEO
Last TLE update18 hours ago
Origin
Flag of USUSAF SMC (US)
ManufacturerUnknown
MissionSpacecraft
Bus & MotorUnknown
MassUnknown
Launch date (UTC)
1966-08-19 (58 years ago)
Launch vehicleUnknown
Launch site
Air Force Western Test Range (AFWTR)
Object type
Payload
Rocket body
Debris
Shape & HBRUnknown
Radar Cross SectionSmall (<0.1 m²)

Expand to show TLE details & history

TLE from 18 hours ago
0 OPS 0856 DEB
1 23820U 66077D   24355.88985517  .00001400  00000-0  80070-1 0  9992
2 23820  88.4009 334.3515 1857582 328.9137  21.3685  8.91035653 38409
Epoch: 2024-12-20T21:21Z
Definitive object data (Epoch: 2024-12-20T21:21:23.486Z)
Latitude-0°
Longitude-75.94524°
Altitude1,811.954 km
Speed7.537 km/s
True Right ascension22h 17m 24s
True Declination0° 00' 00"
Sunlit
Object was in daylight at TLE epoch
Visualization TLE readout
Latitude-2.81747°
Longitude104.08479°
Altitude4,824.661 km
Speed5.533 km/s
Apparent Right ascension08h 34m 31s
Apparent Declination-25° 59' 38"
Sunlit
Object is in daylight
Visualization observer readout
Local Sidereal Time14:06:10
Azimuth245.457° WSW
Elevation-11.314°
Doppler factor1
Orbital elements
Apogee altitude5,272.886 km
Perigee altitude1,622.44 km
Semi-major axis9,825.8 km
Eccentricity0.1857582
Inclination88.4009°
RAAN334.3515°
Arg. of periapsis328.9137°
True anomaly31.18433°
Mean anomaly21.3685°
Eccentric anomaly26.041°
Mean motion2.22839 °/min
BSTAR0.08007
Orbital period161.55 mins
Loading maneuver chart data...
Loading historical data...
Loading historical data...
Loading historical data...
Loading historical data...
Loading historical data...
Loading historical data...
Loading historical data...

OPS 0856 DEB Visibility forecast

Observer location: undefined°, undefined

Span
Click to sort rows by Start time (UTC) header in descending order
Start Az.
Max El. time (UTC)
Max El. Az.
Max El.
End time (UTC)
End Az.
25 mins2024-12-21 21:41:56.779Z131.118° SE2024-12-21 21:51:56.779Z65.753° ENE33.441°2024-12-21 22:06:56.779Z7.182° NNE
27 mins2024-12-22 00:22:56.779Z216.037° SW2024-12-22 00:32:56.779Z289.409° WNW36.409°2024-12-22 00:49:56.779Z357.11° N
15 mins2024-12-22 06:27:56.779Z24.669° NE2024-12-22 06:34:56.779Z41.203° NE11.477°2024-12-22 06:42:56.779Z58.902° ENE
51 mins2024-12-22 09:03:56.779Z4.911° NNE2024-12-22 09:28:56.779Z81.98° E37.988°2024-12-22 09:54:56.779Z152.192° SSE
50 mins2024-12-22 11:45:56.779Z355.509° N2024-12-22 12:08:56.779Z287.87° WNW41.874°2024-12-22 12:35:56.779Z210.997° SW
28 mins2024-12-22 14:29:56.779Z343.603° N2024-12-22 14:42:56.779Z311.254° NW18.218°2024-12-22 14:57:56.779Z278.243° WNW
|